Home   Weather   Philipsburg   Past weeks

Flag for Sint Maarten Past Weather in Philipsburg, Sint Maarten — Yesterday and Last 2 Weeks

Now
84 °F

Partly sunny.


Feels Like: 90 °F
Forecast: 79 / 83 °F
Wind: 13 mph from East

Location: Juliana Airport - Saint Maarten

Current Time: Dec 8, 2016 at 2:27:27 pm

Latest Report: Dec 8, 2016 at 1:00 pm


Visibility: N/A

Pressure: 30.01 "Hg

Humidity: 66%

Dew Point: 72 °F

Location of PhilipsburgLocation

Past Weather in Philipsburg — Graph

°F

Philipsburg Temperature Yesterday

Maximum temperature yesterday: 86 °F (at 12:00 pm)
Minimum temperature yesterday: 79 °F (at 3:00 am)
Average temperature yesterday: 81 °F

High & Low Weather Summary for the Past Weeks

 TemperatureHumidityPressure
High86 °F (Nov 23, 1:00 pm)100% (Nov 28, 11:00 am)30.07 "Hg (Nov 28, 11:00 am)
Low72 °F (Nov 28, 1:00 pm)62% (Nov 25, 11:00 am)29.71 "Hg (Nov 28, 5:00 pm)
Average81 °F80%29.94 "Hg
* Reported Nov 23 1:00 pm — Dec 8 1:00 pm, Philipsburg, Weather by CustomWeather, © 2016

Note: Actual official high and low records may vary slightly from our data, if they occured in-between our weather recording intervals... More about our weather records

Advertising

Philipsburg Weather History for the Previous 24 Hours

Scroll right to see more
 ConditionsComfort  
Time TempWeatherWind HumidityBarometerVisibility
1:00 pm
Thu, Dec 8
84 °FPartly sunny.13 mph66%30.01 "HgN/A
12:00 pm84 °FScattered clouds.14 mph70%30.01 "HgN/A
11:00 am84 °FPassing clouds.15 mph66%30.04 "HgN/A
10:00 am84 °FPassing clouds.15 mph66%30.04 "HgN/A
9:00 am82 °FPassing clouds.13 mph70%30.04 "HgN/A
8:00 am81 °FPassing clouds.13 mph74%30.04 "HgN/A
7:00 am79 °FPassing clouds.9 mph79%30.01 "HgN/A
6:00 am79 °FPassing clouds.10 mph79%30.01 "HgN/A
5:00 am79 °FPassing clouds.13 mph79%29.98 "HgN/A
4:00 am79 °FPassing clouds.1 mph79%30.01 "HgN/A
2:00 am79 °FPassing clouds.14 mph84%30.01 "HgN/A
1:00 am81 °FPassing clouds.16 mph79%30.01 "HgN/A
12:00 am81 °FPassing clouds.13 mph84%30.01 "HgN/A
11:00 pm
Wed, Dec 7
81 °FPassing clouds.14 mph84%30.04 "HgN/A
10:00 pm81 °FPassing clouds.12 mph84%30.04 "HgN/A
9:00 pm81 °FPassing clouds.8 mph84%30.04 "HgN/A
8:00 pm81 °FScattered showers. Passing clouds.10 mph84%30.04 "HgN/A
7:00 pm81 °FPassing clouds.7 mph84%30.01 "HgN/A
6:00 pm81 °FPassing clouds.6 mph84%30.01 "HgN/A
5:00 pm81 °FScattered showers. Scattered clouds.9 mph84%30.01 "HgN/A
4:00 pm84 °FScattered clouds.10 mph70%29.98 "HgN/A
3:00 pm84 °FScattered clouds.13 mph70%29.98 "HgN/A
2:00 pm82 °FPartly sunny.10 mph74%29.98 "HgN/A
Weather by CustomWeather, © 2016

See weather overviewHow to use our weather pages